This is the latest recevied weather packets stored in our database for station/object KG7FOQ-13. If no packets are shown the sender has not sent any weather packets the latest 10 day(s).
| Time | Temp. | Humidity | Pressure | Rain* | Wind** | Luminosity | Snow |
|---|---|---|---|---|---|---|---|
| 1778072123 | 7.22° C | 43% | 1018.5 hPa | 0 mm | - | - | - |
| 1778071823 | 7.22° C | 42% | 1018.4 hPa | 0 mm | - | - | - |
| 1778071522 | 7.22° C | 42% | 1018.4 hPa | 0 mm | - | - | - |
| 1778071221 | 7.22° C | 43% | 1018.4 hPa | 0 mm | - | - | - |
| 1778070921 | 6.67° C | 45% | 1018.2 hPa | 0 mm | - | - | - |
| 1778070620 | 6.11° C | 50% | 1018.2 hPa | 0 mm | - | - | - |
| 1778070320 | 6.11° C | 52% | 1018.2 hPa | 0 mm | - | - | - |
| 1778070019 | 6.11° C | 52% | 1018.1 hPa | 0 mm | - | - | - |
| 1778069719 | 5.56° C | 52% | 1018.1 hPa | 0 mm | - | - | - |
| 1778069418 | 6.11° C | 51% | 1017.9 hPa | 0 mm | - | - | - |
| 1778069118 | 5.56° C | 54% | 1017.9 hPa | 0 mm | - | - | - |
| 1778068817 | 5.56° C | 53% | 1017.8 hPa | 0 mm | - | - | - |
| 1778068517 | 5.56° C | 52% | 1017.7 hPa | 0 mm | - | - | - |
| 1778068216 | 5.56° C | 52% | 1017.5 hPa | 0 mm | - | - | - |
| 1778067916 | 5.56° C | 53% | 1017.5 hPa | 0 mm | - | - | - |
| 1778067615 | 5.56° C | 54% | 1017.5 hPa | 0 mm | - | - | - |
| 1778067315 | 6.11° C | 53% | 1017.5 hPa | 0 mm | - | - | - |
| 1778067014 | 5.56° C | 52% | 1017.5 hPa | 0 mm | - | - | - |
| 1778066713 | 6.11° C | 53% | 1017.7 hPa | 0 mm | - | - | - |
| 1778066412 | 5.56° C | 53% | 1017.7 hPa | 0 mm | - | - | - |
| 1778066112 | 6.11° C | 54% | 1017.5 hPa | 0 mm | - | - | - |
| 1778065811 | 6.11° C | 53% | 1017.5 hPa | 0 mm | - | - | - |
| 1778065511 | 6.11° C | 53% | 1017.3 hPa | 0 mm | - | - | - |
| 1778065210 | 6.11° C | 52% | 1017.3 hPa | 0 mm | - | - | - |
| 1778064910 | 6.11° C | 51% | 1017.2 hPa | 0 mm | - | - | - |
* Rain latest hour (hover to see other rain measurements)
** Current wind speed in m/s (hover to see current wind gust speed)